• In Moldova, Republic
  • List of Countries
  • For 7 days
  • Water Temperature
  • Satellite Maps
  • Weather Map
  • Weather Widgets
  • user-avatar
    Login

    Hourly Weather Klagenfurt

    Today, 22 July, Saturday

    Time Temperature Precipitation Wind Pressure Humidity
    00:00 +18°C° 0 mm 1 mps 689 mmHg 81%
    01:00 +17°C° 0 mm 0 mps 689 mmHg 79%
    02:00 +16°C° 0 mm 0 mps 689 mmHg 80%
    03:00 +16°C° 0 mm 0 mps 689 mmHg 82%
    04:00 +15°C° 0 mm 0 mps 689 mmHg 83%
    05:00 +16°C° 0 mm 0 mps 689 mmHg 79%
    06:00 +18°C° 0 mm 0 mps 690 mmHg 74%
    07:00 +20°C° 0 mm 0 mps 690 mmHg 70%
    08:00 +24°C° 0 mm 1 mps 691 mmHg 61%
    09:00 +26°C° 0 mm 1 mps 691 mmHg 52%
    10:00 +28°C° 0 mm 1 mps 691 mmHg 43%
    11:00 +29°C° 0 mm 2 mps 691 mmHg 42%
    12:00 +29°C° 0 mm 2 mps 692 mmHg 41%
    13:00 +30°C° 0 mm 2 mps 692 mmHg 40%
    14:00 +29°C° 0.1 mm 2 mps 691 mmHg 43%
    15:00 +29°C° 0.1 mm 2 mps 691 mmHg 45%
    16:00 +29°C° 0.1 mm 2 mps 691 mmHg 47%
    17:00 +27°C° 0.1 mm 2 mps 691 mmHg 56%
    18:00 +25°C° 0.1 mm 1 mps 691 mmHg 65%
    19:00 +23°C° 0.1 mm 1 mps 690 mmHg 75%
    20:00 +22°C° 0 mm 1 mps 690 mmHg 79%
    21:00 +20°C° 0 mm 1 mps 690 mmHg 83%
    22:00 +19°C° 0 mm 1 mps 690 mmHg 88%
    23:00 +18°C° 0 mm 1 mps 690 mmHg 88%

    Tomorrow, 23 July, Sunday

    Time Temperature Precipitation Wind Pressure Humidity
    00:00 +18°C° 0 mm 1 mps 690 mmHg 88%
    01:00 +16°C° 0 mm 1 mps 690 mmHg 88%
    02:00 +16°C° 0 mm 1 mps 690 mmHg 88%
    03:00 +16°C° 0 mm 1 mps 690 mmHg 88%
    04:00 +16°C° 0 mm 1 mps 690 mmHg 88%
    05:00 +18°C° 0.1 mm 1 mps 690 mmHg 84%
    06:00 +20°C° 0.1 mm 1 mps 690 mmHg 80%
    07:00 +19°C° 0.1 mm 0 mps 691 mmHg 76%
    08:00 +23°C° 0.3 mm 1 mps 691 mmHg 70%
    09:00 +25°C° 0.3 mm 1 mps 692 mmHg 64%
    10:00 +27°C° 0.3 mm 1 mps 692 mmHg 58%
    11:00 +27°C° 1 mm 1 mps 692 mmHg 59%
    12:00 +28°C° 1 mm 1 mps 692 mmHg 60%
    13:00 +28°C° 1 mm 1 mps 691 mmHg 61%
    14:00 +27°C° 1.5 mm 1 mps 691 mmHg 62%
    15:00 +27°C° 1.5 mm 1 mps 691 mmHg 64%
    16:00 +26°C° 1.5 mm 1 mps 691 mmHg 65%
    17:00 +25°C° 1.2 mm 1 mps 690 mmHg 72%
    18:00 +23°C° 1.2 mm 1 mps 690 mmHg 78%
    19:00 +22°C° 1.2 mm 1 mps 690 mmHg 84%
    20:00 +21°C° 0.6 mm 1 mps 690 mmHg 87%
    21:00 +19°C° 0.6 mm 1 mps 690 mmHg 89%
    22:00 +18°C° 0.6 mm 1 mps 690 mmHg 91%
    23:00 +18°C° 0.2 mm 1 mps 690 mmHg 92%

    Day after tomorrow, 24 July, Monday

    Time Temperature Precipitation Wind Pressure Humidity
    00:00 +18°C° 0.2 mm 1 mps 690 mmHg 93%
    01:00 +16°C° 0.2 mm 1 mps 689 mmHg 94%
    02:00 +16°C° 0.4 mm 1 mps 689 mmHg 94%
    03:00 +16°C° 0.4 mm 1 mps 688 mmHg 95%
    04:00 +16°C° 0.4 mm 1 mps 688 mmHg 95%
    05:00 +16°C° 1.2 mm 1 mps 688 mmHg 95%
    06:00 +18°C° 1.2 mm 1 mps 688 mmHg 95%
    07:00 +18°C° 1.2 mm 1 mps 687 mmHg 96%
    08:00 +19°C° 1.6 mm 1 mps 687 mmHg 93%
    09:00 +20°C° 1.6 mm 1 mps 687 mmHg 91%
    10:00 +20°C° 1.6 mm 1 mps 687 mmHg 89%
    11:00 +20°C° 2.2 mm 1 mps 686 mmHg 90%
    12:00 +20°C° 2.2 mm 1 mps 686 mmHg 92%
    13:00 +20°C° 2.2 mm 1 mps 685 mmHg 93%
    14:00 +20°C° 1 mm 1 mps 685 mmHg 91%
    15:00 +20°C° 1 mm 1 mps 685 mmHg 89%
    16:00 +21°C° 1 mm 1 mps 685 mmHg 87%
    17:00 +20°C° 1.5 mm 1 mps 684 mmHg 89%
    18:00 +19°C° 1.5 mm 1 mps 684 mmHg 90%
    19:00 +17°C° 1.5 mm 2 mps 684 mmHg 92%
    20:00 +16°C° 1.8 mm 2 mps 684 mmHg 94%
    21:00 +15°C° 1.8 mm 2 mps 684 mmHg 95%
    22:00 +14°C° 1.8 mm 1 mps 683 mmHg 96%
    23:00 +14°C° 1.2 mm 1 mps 683 mmHg 96%

    25 July, Tuesday

    Time Temperature Precipitation Wind Pressure Humidity
    00:00 +13°C° 1.2 mm 1 mps 683 mmHg 96%
    01:00 +13°C° 1.2 mm 1 mps 683 mmHg 96%
    02:00 +13°C° 0.1 mm 1 mps 683 mmHg 96%
    03:00 +12°C° 0.1 mm 1 mps 683 mmHg 95%
    04:00 +12°C° 0.1 mm 1 mps 683 mmHg 95%
    05:00 +12°C° 0.1 mm 1 mps 683 mmHg 94%
    06:00 +13°C° 0.1 mm 1 mps 683 mmHg 94%
    07:00 +13°C° 0.1 mm 1 mps 683 mmHg 93%
    08:00 +15°C° 0.1 mm 1 mps 684 mmHg 82%
    09:00 +18°C° 0.1 mm 1 mps 684 mmHg 71%
    10:00 +19°C° 0.1 mm 1 mps 685 mmHg 60%
    11:00 +20°C° 0.1 mm 1 mps 685 mmHg 55%
    12:00 +22°C° 0.1 mm 1 mps 685 mmHg 51%
    13:00 +23°C° 0.1 mm 2 mps 685 mmHg 46%
    14:00 +22°C° 0.3 mm 1 mps 685 mmHg 48%
    15:00 +22°C° 0.3 mm 1 mps 685 mmHg 50%
    16:00 +22°C° 0.3 mm 1 mps 685 mmHg 51%
    17:00 +20°C° 0.6 mm 1 mps 685 mmHg 60%
    18:00 +19°C° 0.6 mm 1 mps 684 mmHg 70%
    19:00 +16°C° 0.6 mm 1 mps 684 mmHg 79%
    20:00 +15°C° 0.2 mm 1 mps 684 mmHg 81%
    21:00 +13°C° 0.2 mm 1 mps 684 mmHg 84%
    22:00 +12°C° 0.2 mm 1 mps 684 mmHg 86%
    23:00 +12°C° 0.1 mm 1 mps 684 mmHg 87%

    26 July, Wednesday

    Time Temperature Precipitation Wind Pressure Humidity
    00:00 +11°C° 0.1 mm 1 mps 684 mmHg 88%
    01:00 +11°C° 0.1 mm 1 mps 684 mmHg 88%
    02:00 +11°C° 0.2 mm 1 mps 684 mmHg 88%
    03:00 +11°C° 0.2 mm 1 mps 684 mmHg 88%
    04:00 +11°C° 0.2 mm 1 mps 684 mmHg 88%
    05:00 +12°C° 0.3 mm 1 mps 684 mmHg 86%
    06:00 +13°C° 0.3 mm 1 mps 684 mmHg 83%
    07:00 +14°C° 0.3 mm 1 mps 684 mmHg 81%
    08:00 +16°C° 0.3 mm 1 mps 685 mmHg 73%
    09:00 +19°C° 0.3 mm 1 mps 685 mmHg 65%
    10:00 +22°C° 0.3 mm 1 mps 685 mmHg 57%
    11:00 +22°C° 0.8 mm 1 mps 685 mmHg 58%
    12:00 +22°C° 0.8 mm 1 mps 685 mmHg 58%
    13:00 +23°C° 0.8 mm 1 mps 685 mmHg 59%
    14:00 +23°C° 0.7 mm 1 mps 685 mmHg 59%
    15:00 +22°C° 0.7 mm 1 mps 685 mmHg 58%
    16:00 +22°C° 0.7 mm 1 mps 685 mmHg 58%
    17:00 +21°C° 0.7 mm 1 mps 685 mmHg 65%
    18:00 +19°C° 0.7 mm 1 mps 685 mmHg 72%
    19:00 +18°C° 0.7 mm 1 mps 684 mmHg 79%
    20:00 +15°C° 0.5 mm 1 mps 685 mmHg 82%
    21:00 +14°C° 0.5 mm 1 mps 685 mmHg 84%
    22:00 +13°C° 0.5 mm 1 mps 685 mmHg 86%
    23:00 +13°C° 0.2 mm 1 mps 685 mmHg 88%

    27 July, Thursday

    Time Temperature Precipitation Wind Pressure Humidity
    00:00 +12°C° 0.2 mm 1 mps 685 mmHg 89%
    01:00 +12°C° 0.2 mm 1 mps 685 mmHg 90%
    02:00 +12°C° 0.1 mm 1 mps 685 mmHg 91%
    03:00 +11°C° 0.1 mm 1 mps 685 mmHg 92%
    04:00 +11°C° 0.1 mm 1 mps 685 mmHg 93%
    05:00 +12°C° 0.1 mm 1 mps 685 mmHg 90%
    06:00 +13°C° 0.1 mm 1 mps 686 mmHg 87%
    07:00 +15°C° 0.1 mm 1 mps 686 mmHg 84%
    08:00 +16°C° 0.2 mm 1 mps 687 mmHg 78%
    09:00 +19°C° 0.2 mm 1 mps 687 mmHg 71%
    10:00 +21°C° 0.2 mm 1 mps 688 mmHg 65%
    11:00 +21°C° 0.8 mm 1 mps 688 mmHg 66%
    12:00 +22°C° 0.8 mm 1 mps 688 mmHg 67%
    13:00 +22°C° 0.8 mm 1 mps 688 mmHg 68%
    14:00 +22°C° 0.7 mm 1 mps 688 mmHg 68%
    15:00 +21°C° 0.7 mm 1 mps 687 mmHg 69%
    16:00 +21°C° 0.7 mm 1 mps 687 mmHg 69%
    17:00 +20°C° 0.2 mm 1 mps 687 mmHg 74%
    18:00 +19°C° 0.2 mm 1 mps 687 mmHg 79%
    19:00 +18°C° 0.2 mm 1 mps 687 mmHg 84%
    20:00 +15°C° 0 mm 1 mps 688 mmHg 87%
    21:00 +14°C° 0 mm 1 mps 688 mmHg 89%
    22:00 +13°C° 0 mm 1 mps 688 mmHg 91%
    23:00 +13°C° 0 mm 1 mps 688 mmHg 91%
    Show more